User: anonymous   Login
Location: Unspecified
(17.6330°N, 0.0000°E)
Time: 14:04:47
(UTC+00:00)
Language:

Tiros 1 despin weight - Orbit

View from above orbital plane
View from above orbital plane
View from above satellite
View from above satellite

Ground track
Ground track

The orbit data is extracted from the following two-line orbital elements,

1   115U 60002D   20267.11250588 -.00000019 +00000-0 +24845-4 0  9990
2   115 048.1665 164.6174 0035126 318.6780 041.1476 14.83618430206311
Epoch (UTC): 23 September 2020 02:42:00
Eccentricity: 0.0035126
inclination: 48.1665°
perigee height: 593 km
apogee height: 642 km
right ascension of ascending node: 164.6174°
argument of perigee: 318.6780°
revolutions per day: 14.83618430
mean anomaly at epoch: 41.1476°
orbit number at epoch: 20631

The dashed part of the orbit path shows where the satellite is in the earth's shadow,  

DLR